Погода в Контажене

Бразилия     19°57′51″S   44°01′36″W
темп.,
°C
ветер,
м/с
пор.,
м/с
влажн.,
%
обл.,
%
осадки,
мм/ч
давл.,
гПа
погр.,
м
27 января, ср
ср2700:00+20всв37790 0.0 1016421
03:00+19всв258714 0.0 1016332
06:00+18всв368918 0.0 1016315
09:00+23всв466433 0.0 1017756
12:00+27св34390 0.0 10161467
15:00+29св33320 0.0 10131895
18:00+25св35490 0.0 1012779
21:00+20всв37640 0.0 1015439
28 января, чт
чт2800:00+19в257885 0.0 1015259
03:00+18в237793 0.0 1015172
06:00+18в238088 0.0 1015140
09:00+24св225494 0.0 1016668
12:00+29ссз2232100 0.0 10142031
15:00+29с3333100 0.0 10121990
18:00+26св22491 0.0 10111056
21:00+21в365816 0.0 1014383
29 января, пт
пт2900:00+19в246853 0.0 1015216
03:00+18вюв227539 0.0 1015137
06:00+18в238052 0.0 1016141
09:00+25всв235327 0.0 1017748
12:00+30с33320 0.0 10152120
15:00+30с43362 0.0 10122245
18:00+26св235338 0.1 1012879
21:00+22в246921 0.1 1014393
30 января, сб
сб3000:00+21в25760 0.0 1015334
03:00+20в26770 0.0 1015331
06:00+19вюв24840 0.0 1017216
09:00+25всв345514 0.0 1017733
12:00+30св343855 0.0 10161811
15:00+30св443431 0.0 10132091
18:00+26св354824 0.0 1013988
21:00+22всв386915 0.0 1015456
31 января, вс
вс3100:00+20всв37720 0.0 1017416
03:00+19в26740 0.0 1016344
06:00+18в238321 0.0 1017192
09:00+25всв355333 0.0 1017768
12:00+30ссв333549 0.0 10151814
15:00+30с223574 0.0 10122139
18:00+26з0153100 0.1 1012981
21:00+23в2468100 0.1 1015342